SL-16 DEB, 26968

Orbit data source: Space-Track

SL-16 DEB, 26968 is space debris in LEO originally from a launch on Fri, 26 Mar 1993 UTC launched from the Tyuratam Missile And Space Complex (TTMTR). Debris objects in space refer to the collection of defunct objects orbiting the Earth. Examples of debris include non-operational satellites, rocket bodies, and fragments generated from explosions, collisions, or faulty payload assembly.

Loading next visibility...
SL-16 DEB details
Identifier
26968, 1993-016AJ
Orbit
LEO
Last TLE update15 hours ago
Origin
Flag of CISRVSN RF (CIS)
ManufacturerUnknown
MissionSpacecraft
Bus & MotorUnknown
MassUnknown
Launch date (UTC)
1993-03-26 (32 years ago)
Launch vehicleUnknown
Launch site
Tyuratam Missile And Space Complex (TTMTR)
Object type
Payload
Rocket body
Debris
Shape & HBRUnknown
Radar Cross SectionSmall (<0.1 m²)

Expand to show TLE details & history

TLE from 15 hours ago
0 SL-16 DEB
1 26968U 93016AJ  25023.94939347  .00006746  00000-0  21446-2 0  9992
2 26968  70.9976 301.2942 0010373 298.4690 149.5842 14.40196596655884
Epoch: 2025-01-23T22:47Z
Definitive object data (Epoch: 2025-01-23T22:47:07.595Z)
Latitude71.00175°
Longitude-79.79089°
Altitude775.947 km
Speed7.469 km/s
True Right ascension01h 42m 02s
True Declination70° 53' 45"
Sunlit
Object was in daylight at TLE epoch
Visualization TLE readout
Latitude55.18034°
Longitude-135.85841°
Altitude770.415 km
Speed7.472 km/s
Apparent Right ascension00h 42m 17s
Apparent Declination13° 53' 33"
Sunlit
Object is in daylight
Visualization observer readout
Local Sidereal Time14:55:32
Azimuth37.108° NE
Elevation-27.915°
Doppler factor1
Orbital elements
Apogee altitude763.149 km
Perigee altitude748.349 km
Semi-major axis7,133.886 km
Eccentricity0.0010373
Inclination70.9976°
RAAN301.2942°
Arg. of periapsis298.469°
True anomaly149.64431°
Mean anomaly149.5842°
Eccentric anomaly149.61426°
Mean motion3.60208 °/min
BSTAR0.0021446
Orbital period99.94 mins
Loading maneuver chart data...
Loading historical data...
Loading historical data...
Loading historical data...
Loading historical data...
Loading historical data...
Loading historical data...
Loading historical data...

SL-16 DEB Visibility forecast

Observer location: undefined°, undefined

Span
Click to sort rows by Start time (UTC) header in descending order
Start Az.
Max El. time (UTC)
Max El. Az.
Max El.
End time (UTC)
End Az.
6 mins2025-01-24 18:30:29.279Z140.017° SSE2025-01-24 18:33:29.279Z101.987° ESE17.814°2025-01-24 18:36:29.279Z62.931° ENE
8 mins2025-01-24 20:11:29.279Z225.646° WSW2025-01-24 20:15:29.279Z302.874° NW37.698°2025-01-24 20:19:29.279Z9.75° NNE
9 mins2025-01-25 04:56:29.279Z350.971° N2025-01-25 05:00:29.279Z63.547° ENE37.83°2025-01-25 05:05:29.279Z138.902° SSE
5 mins2025-01-25 06:40:29.279Z284.3° WNW2025-01-25 06:42:29.279Z255.726° W17.885°2025-01-25 06:45:29.279Z218.67° SW
|